Location: Newark
(50.9000°N, 14.8333°E)
Time: 18:01:00
(UTC+00:00)

N. Korean satellite - Pass Details

Date: 31 October 2020
Orbit: 453 x 503 km, 97.2° (Epoch: 04 December)

Event Time Altitude Azimuth Distance (km) Brightness Sun altitude
Rises 03:37:48 0° 28° (NNE) 2,482 10.6 -21.5°
Reaches altitude 10° 03:40:29 10° 52° (NE) 1,600 9.9 -21.0°
Maximum altitude 03:42:38 16° 91° (E) 1,283 9.7 -20.7°
Drops below altitude 10° 03:44:48 10° 130° (SE) 1,592 9.8 -20.4°
Sets 03:47:27 0° 154° (SSE) 2,462 10.5 -19.9°
